#timestamp,LO_Frequency,Hit,StdDev 
1594288815.6,286046997.3,P
1594288835.4,286046997.8,P
1594288855.3,286046997.5,P
1594288875.1,286046997.2,Y
1594288876.0,286046997.2,P
1594288895.8,286046996.6,P
1594288915.7,286046999.5,N
1594288935.5,286046999.0,N
1594288955.3,286046999.2,N
1594288975.2,286046999.5,N
1594288995.0,286046996.6,Y
1594288995.9,286046996.6,P
1594289015.8,286046998.7,N
1594289035.6,286046998.7,N
1594289055.4,286046998.2,N
1594289075.3,286046998.3,N
1594289095.1,286046999.5,N
1594289115.9,286046998.9,N
1594289135.7,286046996.9,Y
1594289155.5,286046998.3,P
1594289175.4,286046998.2,P
1594289195.2,286046998.3,P
1594289215.0,286046999.5,Y
1594289215.9,286046999.5,P
1594289235.8,286046998.5,N
1594289255.6,286046999.2,N
1594289275.5,286046999.4,N
1594289295.3,286046998.4,Y
1594289315.1,286046998.2,P
1594289335.9,286046998.6,P
1594289355.7,286046998.9,P
1594289375.6,286047001.2,Y
1594289395.4,286047000.1,P
1594289415.2,286047000.6,N
1594289435.1,286046999.9,N
1594289436.0,286046999.9,N
1594289455.8,286047000.9,N
1594289475.6,286047000.4,N
1594289495.5,286047000.1,N
1594289515.3,286047002.8,Y
1594289535.2,286047000.2,P
1594289555.9,286047000.2,N
1594289575.7,286047002.2,P
1594289595.6,286047002.4,N
1594289615.4,286047000.4,N
1594289635.2,286047000.0,N
1594289655.1,286047000.6,N
1594289656.0,286047000.6,N
1594289675.8,286047001.2,N
1594289695.7,286047000.3,N
1594289715.5,286046998.2,N
1594289735.3,286046998.1,N
1594289755.2,286046998.5,N
1594289775.0,286046998.2,N
1594289775.9,286046998.2,N
1594289795.7,286047001.2,N
1594289815.6,286046998.7,N
1594289835.4,286046999.4,N
1594289855.3,286046996.6,N
1594289875.1,286046998.7,N
1594289876.0,286046998.7,N
1594289895.8,286046997.3,N
1594289915.7,286046996.5,N
1594289935.5,286046997.8,N
1594289955.3,286046995.7,N
1594289975.2,286046995.7,N
1594289995.0,286046995.8,N
1594289995.9,286046995.8,N
1594290015.8,286046998.0,N
1594290035.6,286046994.9,N
1594290055.4,286046995.7,N
1594290075.3,286046996.1,N
1594290095.1,286046993.6,Y
1594290115.8,286046995.2,P
1594290135.7,286046995.6,N
1594290155.5,286046995.6,P
1594290175.4,286046995.8,Y
1594290195.2,286046998.3,P
1594290215.0,286046998.9,N
1594290215.9,286046998.9,N
1594290235.8,286046998.5,N
1594290255.6,286046998.4,N
1594290275.5,286046999.4,N
1594290295.3,286046998.7,N
1594290315.1,286046999.0,N
1594290335.9,286046999.1,N
1594290355.7,286046997.2,Y
1594290375.6,286046998.3,P
1594290395.4,286046998.1,P
1594290415.2,286046998.6,P
1594290435.1,286046998.6,Y
1594290436.0,286046998.6,P
1594290455.8,286047001.0,P
1594290475.6,286047000.0,N
1594290495.5,286047001.0,N
1594290515.3,286046998.1,N
1594290535.2,286047000.9,N
1594290555.9,286047000.9,N
1594290575.7,286047000.5,N
1594290595.6,286047001.0,N
1594290615.4,286046999.7,N
1594290635.2,286047000.1,N
1594290655.1,286047000.5,N
1594290656.0,286047000.5,N
1594290675.8,286047001.1,N
1594290725.7,286046998.5,E
1594290735.6,286047000.7,N
1594290755.5,286047000.2,P
1594290775.3,286047000.0,N
1594290795.1,286047000.6,N
1594290815.9,286047002.7,Y
1594290835.7,286047000.5,P
1594290855.5,286047000.4,P
1594290875.4,286047000.5,P
1594290895.2,286047000.0,N
1594290915.1,286047002.4,Y
1594290916.0,286047002.4,P
1594290935.8,286047001.0,N
1594290955.6,286046998.3,N
1594290975.5,286046999.0,N
1594290995.3,286046998.4,N
1594291015.2,286046998.9,N
1594291035.9,286046998.3,N
1594291055.7,286046998.9,N
1594291075.6,286047001.1,N
1594291095.4,286047000.8,N
1594291115.3,286047001.1,N
1594291135.1,286046998.7,N
1594291136.0,286046998.7,N
1594291155.8,286046998.4,N
1594291175.7,286046998.5,N
1594291195.5,286046998.7,N
1594291215.3,286046997.2,N
1594291235.2,286046996.6,N
1594291255.0,286046997.3,N
1594291255.9,286046997.3,N
1594291275.8,286046997.8,N
1594291295.6,286046997.4,N
1594291315.4,286046996.9,N
1594291335.3,286046999.5,N
1594291355.1,286046996.7,N
1594291375.9,286046997.4,N
1594291395.7,286046997.0,N
1594291415.5,286046999.4,N
1594291435.4,286046996.5,N
1594291455.2,286046997.1,N
1594291475.0,286046997.5,N
1594291476.0,286046997.5,N
1594291495.8,286046996.9,N
1594291515.6,286046996.9,N
1594291535.5,286046996.5,N
1594291555.3,286046997.6,N
1594291575.1,286046996.8,N
1594291595.9,286046997.7,N
1594291615.7,286046996.8,N
1594291635.6,286046997.2,N
1594291655.4,286046997.7,N
1594291675.2,286046997.6,N
1594291695.1,286046994.9,Y
1594291696.0,286046994.9,P
1594291715.8,286046998.8,N
1594291735.7,286046998.3,N
1594291755.5,286046999.3,N
1594291775.3,286046996.9,N
1594291795.2,286046999.3,N
1594291815.0,286046999.0,N
1594291815.9,286046999.0,N
1594291835.8,286046999.3,N
1594291855.6,286046999.5,N
1594291875.4,286046996.5,N
1594291895.3,286046996.6,N
1594291915.1,286046999.4,N
1594291935.8,286046996.6,N
1594291955.7,286046996.8,N
1594291975.5,286046997.9,N
1594291995.4,286046997.8,N
1594292015.2,286046995.4,Y
1594292035.0,286046999.1,P
1594292035.9,286046999.1,N
1594292055.8,286046996.6,P
1594292075.6,286046996.6,Y
1594292095.5,286047000.5,P
1594292115.3,286047000.3,N
1594292135.1,286046998.2,N
1594292155.9,286047001.2,N
1594292175.7,286047000.9,N
1594292195.5,286046998.6,N
1594292215.4,286047000.8,N
1594292235.2,286047000.8,N
1594292255.1,286047000.8,N
1594292256.0,286047000.8,N
1594292275.8,286047001.1,N
1594292295.6,286047001.2,N
1594292315.5,286046998.5,N
1594292335.3,286046998.2,N
1594292355.1,286046999.0,N
1594292375.9,286046998.2,N
1594292395.7,286046999.0,N
